Location: Alpine Branch San Diego County Library
(32.8356°N, 116.7684°W)
Time: 15:41:57
(UTC+00:00)

Daily predictions for brighter satellites

Satellite Brightness Start Highest point End
(mag) Time Altitude Azimuth Time Altitude Azimuth Time Altitude Azimuth
Cosmos 2208 Rocket 4.3 12:20:28 59° S 12:20:28 59° S 12:24:45 10° S
ATLAS 5 CENTAUR R/B 3.0 12:20:01 27° SE 12:20:51 30° ESE 12:24:17 10° NE
Cosmos 1766 Rocket 4.3 12:18:17 10° SSE 12:22:29 51° E 12:26:40 10° NNE
Cosmos 1867 3.9 12:24:57 51° SSW 12:24:57 51° SSW 12:29:11 10° SSE
Cosmos 1241 Rocket 4.3 12:25:05 67° NW 12:25:59 83° WSW 12:32:11 10° SSE
Meteor 2-13 Rocket 4.2 12:22:35 10° S 12:28:41 78° W 12:34:47 10° N
BREEZE-M DEB 3.8 12:31:18 37° E 12:31:18 37° E 12:34:28 10° NE
SL-4 R/B 4.3 12:39:41 10° S 12:42:09 19° SE 12:44:42 10° E
Hubble Space Telescope 3.3 12:43:46 11° SSW 12:43:46 11° SSW 12:44:38 10° S
H-2A R/B 2.7 12:42:12 48° NNE 12:43:09 76° E 12:46:56 10° S
COSMO-SKYMED 1 3.8 12:40:14 10° SE 12:44:16 40° ENE 12:48:19 10° N
Meteor 1-31 Rocket 3.5 12:41:29 10° NNE 12:45:19 54° E 12:49:09 10° S
Envisat 2.9 12:43:42 10° NNE 12:48:48 88° ESE 12:53:52 10° SSW
MOS 1-B Rocket 4.0 12:42:38 10° SSE 12:49:08 81° ENE 12:54:55 10° N
Cosmos 1174 3.7 12:51:49 55° ESE 12:51:49 55° ESE 12:54:41 10° NE
Cosmos 1408 Rocket 4.3 12:50:28 10° S 12:54:38 52° E 12:58:48 10° NNE
Cosmos 1782 4.5 12:58:15 20° SSW 12:58:15 20° SSW 12:59:42 10° SSW
CZ-4B R/B 4.1 12:53:51 10° NNE 12:58:20 87° ESE 13:02:45 10° SSW
Cosmos 2369 Rocket 3.8 13:03:39 16° NNW 13:03:39 16° NNW 13:05:15 10° N
ATLAS 3B R/B 2.7 13:00:47 10° SSW 13:07:13 78° ESE 13:13:54 10° NNE
Landsat 5 4.2 13:04:21 10° SSE 13:08:46 58° ENE 13:13:10 10° N
Meteor 1-10 Rocket 4.4 13:07:06 10° N 13:12:39 72° E 13:18:11 10° SSE
DELTA 2 R/B (1) 4.2 13:10:34 28° NW 13:12:53 42° N 13:18:07 10° ENE
SJ 16-02 1.4 13:08:57 10° S 13:13:19 80° ESE 13:17:42 10° NNE
CZ-2C R/B 2.6 13:11:19 10° S 13:16:49 82° WSW 13:22:15 10° NNW
Cosmos 1354 Rocket 4.3 13:12:35 10° SW 13:17:32 42° WNW 13:22:33 10° N
CBERS 1 LM4 rocket 4.5 13:13:23 10° N 13:18:15 57° WNW 13:23:17 10° SSW
Cosmos 1515 Rocket 4.1 13:15:39 10° N 13:19:56 58° E 13:24:11 10° SSE
FALCON 9 R/B 4.0 13:04:37 21° W 13:23:02 89° SSW 13:29:50 10° ESE
SL-19 R/B 4.4 13:19:42 10° S 13:25:09 51° WSW 13:30:33 10° NNW
Cosmos 2279 Rocket 4.1 13:23:12 10° NNW 13:29:12 55° W 13:35:13 10° SSW
Nadezhda 4 Rocket 3.9 13:25:25 10° S 13:31:33 80° W 13:37:47 10° N
Cosmos 1500 Rocket 3.7 13:27:48 10° S 13:32:14 82° E 13:36:43 10° N
SKYMED 2 3.7 13:28:03 10° S 13:32:15 51° W 13:36:29 10° NNW
Cosmos 921 Rocket 4.4 13:33:05 19° W 13:33:53 20° W 13:37:09 10° SW
USA 215 4.3 13:30:24 10° ESE 13:36:17 37° NE 13:42:11 10° NNW
ADEOS 3.6 13:35:36 10° N 13:40:43 59° WNW 13:45:50 10° SSW
Meteor PRIRODA 3.5 13:38:21 10° N 13:41:59 79° WNW 13:45:36 10° SSW
CZ-4B R/B 2.5 13:40:41 10° N 13:44:16 86° WNW 13:47:55 10° SSW
Cosmos 1805 Rocket 4.1 13:40:11 10° S 13:44:30 62° E 13:48:49 10° NNE
H-2A R/B 3.5 13:41:33 10° SE 13:45:29 39° ENE 13:49:31 10° N
SL-27 R/B 2.4 13:43:37 10° NNW 13:47:10 89° ENE 13:50:39 10° SSE
Cosmos 1812 4.4 13:47:07 14° W 13:47:32 14° W 13:49:34 10° WSW
Meteor 2-15 4.5 13:41:51 10° NNW 13:47:47 60° W 13:53:41 10° S
Cosmos 1340 Rocket 2.8 13:45:11 10° SSW 13:49:01 55° W 13:52:56 10° N
Cosmos 1092 Rocket 4.2 13:43:19 10° S 13:49:32 81° E 13:55:51 10° N
Cosmos 1151 Rocket 4.4 13:47:00 12° NW 13:49:42 19° W 13:52:46 10° SW
SMAP 3.8 13:46:35 10° NNE 13:51:11 59° E 13:55:45 10° S
NOAA 11 4.4 13:52:04 10° N 13:57:18 47° WNW 14:02:32 10° SW
FAST Rocket 4.4 13:57:10 10° SSW 13:59:41 37° W 14:02:16 10° N
SL-8 R/B 4.0 13:55:09 10° NW 13:59:55 64° NE 14:04:38 10° ESE
OAO 2 Rocket 3.7 13:55:10 10° WSW 14:00:20 70° SSE 14:05:23 10° ENE
CZ-2C R/B 3.1 13:56:19 10° N 14:01:10 55° WNW 14:06:16 10° SSW
ATLAS 5 CENTAUR R/B 2.9 14:03:04 10° W 14:05:28 16° NW 14:08:00 10° N
CZ-4B R/B 3.5 14:03:09 10° SE 14:06:02 28° ENE 14:08:53 10° NNE
H-2A R/B 3.5 14:02:43 10° NNE 14:07:22 41° E 14:12:01 10° S
